Flag for Sao Tome and Principe Weather past 2 weeks in São Tomé, Sao Tome and Principe

Now
73 °F

Passing clouds.


Feels Like: 73 °F
Forecast: 75 / 78 °F
Wind: 12 mph from South

Location: S. Tome

Current Time: Aug 31, 2014 at 6:38:03 AM

Latest Report: Aug 31, 2014 at 5:00 AM


Visibility: N/A

Pressure: 29.92 "Hg

Humidity: 83%

Dew point: 68 °F

Location of São ToméLocation

Historic Weather in São Tomé — Graph

°F

São Tomé temperature yesterday

Maximum temperature yesterday: 81 °F (at 10:00 AM)
Minimum temperature yesterday: 73 °F (at 6:00 AM)
Average temperature yesterday: 77 °F

Past Weeks' High & Low Weather Summary

 TemperatureHumidityPressure
High82 °F (Aug 16, 1:00 PM)100% (Aug 19, 6:00 PM)30.04 "Hg (Aug 19, 6:00 PM)
Low72 °F (Aug 18, 4:00 AM)41% (Aug 27, 4:00 AM)29.86 "Hg (Aug 27, 4:00 PM)
Average77 °F86%29.95 "Hg
* Reported Aug 16 5:00 AM — Aug 31 5:00 AM, São Tomé, Weather by CustomWeather, © 2014

Note: Actual official high and low records may vary slightly from our data, if they occured in-between our weather recording intervals... More about our weather records

Advertising

São Tomé weather history for previous 24 hours

 ConditionsComfort  
Time TempWeatherWind HumidityBarometerVisibility
5:00 AM
Aug 31
73 °FPassing clouds.12 mph83%29.92 "HgN/A
4:00 AM75 °FPassing clouds.14 mph78%29.89 "HgN/A
11:00 PM
Aug 30
75 °FPassing clouds.2 mph83%29.95 "HgN/A
10:00 PM75 °FPassing clouds.5 mph94%29.98 "HgN/A
9:00 PM75 °FPassing clouds.2 mph83%29.95 "HgN/A
8:00 PM75 °FPassing clouds.5 mph83%29.95 "HgN/A
7:00 PM75 °FPassing clouds.No wind83%29.92 "HgN/A
6:00 PM77 °FPassing clouds.7 mph83%29.89 "HgN/A
5:00 PM79 °FPartly sunny.9 mph79%29.89 "HgN/A
3:00 PM79 °FPartly sunny.9 mph79%29.89 "HgN/A
1:00 PM77 °FPartly sunny.12 mph83%29.95 "HgN/A
12:00 PM79 °FPartly sunny.12 mph79%29.95 "Hg5 mi
11:00 AM81 °FPartly sunny.18 mph74%29.98 "HgN/A
10:00 AM81 °FPartly sunny.16 mph70%29.98 "HgN/A
9:00 AM79 °FPartly sunny.12 mph79%29.98 "HgN/A
8:00 AM77 °FPartly sunny.5 mph83%29.95 "HgN/A
6:00 AM73 °FPartly sunny.5 mph83%29.95 "HgN/A
Weather by CustomWeather, © 2014

See weather overviewHow to use our weather pages